This is the latest recevied weather packets stored in our database for station/object KD8UTJ. If no packets are shown the sender has not sent any weather packets the latest 10 day(s).
| Time | Temp. | Humidity | Pressure | Rain* | Wind** | Luminosity | Snow |
|---|---|---|---|---|---|---|---|
| 1778154029 | 22.78° C | 88% | 1018.3 hPa | 0 mm | - | 76 W/m² | - |
| 1778153726 | 22.22° C | 89% | 1018.4 hPa | 0 mm | - | 66 W/m² | - |
| 1778153423 | 22.22° C | 89% | 1018.4 hPa | 0 mm | - | 57 W/m² | - |
| 1778153121 | 22.22° C | 90% | 1018.5 hPa | 0 mm | - | 52 W/m² | - |
| 1778152818 | 21.67° C | 90% | 1018.4 hPa | 0 mm | - | 43 W/m² | - |
| 1778152515 | 21.67° C | 90% | 1018.3 hPa | 0 mm | - | 37 W/m² | - |
| 1778152211 | 21.67° C | 91% | 1018.2 hPa | 0 mm | - | 30 W/m² | - |
| 1778151908 | 21.67° C | 91% | 1018.2 hPa | 0 mm | - | 26 W/m² | - |
| 1778151604 | 21.67° C | 91% | 1018.2 hPa | 0 mm | - | 21 W/m² | - |
| 1778151301 | 21.67° C | 91% | 1018.1 hPa | 0 mm | - | 16 W/m² | - |
| 1778150997 | 21.67° C | 91% | 1018.2 hPa | 0 mm | - | 11 W/m² | - |
| 1778150695 | 21.67° C | 91% | 1018 hPa | 0 mm | - | 7 W/m² | - |
| 1778150390 | 21.67° C | 91% | 1017.9 hPa | 0 mm | - | 4 W/m² | - |
| 1778150087 | 21.67° C | 90% | 1017.8 hPa | 0 mm | - | 2 W/m² | - |
| 1778149783 | 21.67° C | 90% | 1018 hPa | 0 mm | - | 1 W/m² | - |
| 1778149480 | 21.67° C | 90% | 1017.9 hPa | 0 mm | - | 0 W/m² | - |
| 1778149177 | 21.67° C | 90% | 1017.9 hPa | 0 mm | - | 0 W/m² | - |
| 1778148872 | 21.67° C | 90% | 1018 hPa | 0 mm | - | 0 W/m² | - |
| 1778148569 | 21.67° C | 89% | 1017.5 hPa | 0 mm | - | 0 W/m² | - |
| 1778148266 | 21.67° C | 89% | 1017.6 hPa | 0 mm | - | 0 W/m² | - |
| 1778147965 | 21.67° C | 89% | 1017.7 hPa | 0 mm | - | 0 W/m² | - |
| 1778147661 | 21.67° C | 89% | 1017.4 hPa | 0 mm | - | 0 W/m² | - |
| 1778147358 | 21.67° C | 89% | 1017.2 hPa | 0 mm | - | 0 W/m² | - |
| 1778147054 | 21.67° C | 89% | 1017.2 hPa | 0 mm | - | 0 W/m² | - |
| 1778146751 | 21.67° C | 89% | 1017 hPa | 0 mm | - | 0 W/m² | - |
* Rain latest hour (hover to see other rain measurements)
** Current wind speed in m/s (hover to see current wind gust speed)